PROFILE

 METAR AND TAF INFORMATION
ADDS - METARS form results

(0925 UTC 18 May 2022)
http://aviationweather.gov/metar/data/
 
LFKJ 180900Z AUTO 22007KT CAVOK 23/14 Q1019 NOSIG
LFKJ 180830Z AUTO 23006KT CAVOK 23/14 Q1019 NOSIG
TAF LFKJ 180800Z 1809/1909 24010KT CAVOK TX27/1812Z TN15/1903Z BECMG 1820/1822 VRB05KT BECMG 1907/1909 23010KT 

 AIRPORT MAP

 RUNWAY INFORMATION
Runway 02 Runway length 7897 ft Runway width 148 ft
Runway elevation 15 ft Runway displaced threshold 0 ft Runway heading 25
Runway 20 Runway length 7897 ft Runway width 148 ft
Runway elevation 18 ft Runway displaced threshold 744 ft Runway heading 205

 AIRPORT FREQUENCIES
Type AFIS Name AFIS Frequency 119.825 MHZ
Type APP Name AJACCIO AP Frequency 121.05 MHZ
Type ATIS Name AJACCIO AT Frequency 126.925 MHZ
Type GND Name AJACCIO GN Frequency 121.7 MHZ
Type TWR Name AJACCIO TW Frequency 118.075 MHZ

 AIRPORT NEAR NAVIGATION AIDS
Type NDB Name Ajaccio/Campo Dell Oro Frequency 341 KHZ